SCP
0 0 0 0 0 0 -0 0 0 0 0 0 0 0 0 0 -0 -0 -0 0 0 -0 -0 0 0 0 -0 -0 -0 -0 0 -0 0 -0 -0 -0 -0 0 -0 -0 0 0 0 -0 -0
0 0 0 0 0 0 0 0 0 0 0 0 0 0 0 0 -0 -0 0 0 0 -0 0 0 0 0 0 -0 0 0 -0 0 0 0 -0 -0 -0 -0 -0 -0 -0 -0 -0 -0 -0
0 0 0 0 0 0 0 0 0 0 0 0 0 0 0 -0 -0 0 0 0 0 -0 0 0 0 0 -0 -0 -0 -0 -0 0 0 0 0 -0 -0 -0 -0 -0 -0 -0 -0 -0 -0
0 0 0 0 0 0 0 0 0 0 0 0 0 0 0 -0 0 0 0 0 -0 -0 -0 0 0 0 -0 0 -0 -0 -0 0 0 0 -0 0 -0 0 -0 -0 -0 -0 -0 -0 -0
0 0 0 0 0 0 0 0 0 0 0 0 0 0 0 0 0 0 0 0 -0 -0 -0 -0 0 0 0 0 -0 -0 -0 0 0 0 -0 0 -0 -0 0 0 -0 -0 -0 -0 -0
0 0 0 0 0 0 0 0 0 0 0 0 0 0 0 0 0 0 0 0 -0 -0 -0 -0 0 -0 0 0 0 0 -0 0 0 0 0 0 -0 0 -0 0 -0 -0 -0 -0 -0
0 0 0 0 0 0 0 0 0 0 0 0 -0 0 0 0 0 0 0 -0 -0 -0 0 -0 0 0 -0 0 0 -0 -0 0 0 0 0 0 -0 -0 -0 -0 -0 -0 -0 -0 -0
0 0 0 0 0 0 -0 0 0 0 -0 0 0 0 0 0 0 0 -0 -0 0 0 0 0 0 0 -0 0 0 -0 -0 0 -0 0 -0 -0 -0 0 -0 -0 -0 -0 -0 -0 -0
0 0 0 0 0 0 -0 0 0 -0 -0 -0 0 -0 0 0 0 0 -0 -0 0 0 0 0 0 0 0 0 0 -0 0 0 0 0 0 -0 -0 -0 0 -0 -0 -0 -0 -0 0
0 0 0 0 0 0 0 0 0 -0 -0 -0 0 0 0 0 0 0 0 0 -0 0 0 -0 0 0 0 0 -0 0 0 0 0 0 0 -0 -0 -0 0 -0 0 0 -0 -0 0
0 0 0 0 0 0 0 0 0 -0 0 0 0 0 0 0 0 0 0 -0 -0 0 0 -0 0 0 -0 -0 -0 0 0 -0 0 0 0 0 -0 0 0 -0 0 -0 0 -0 -0
0 0 0 0 0 0 0 0 0 0 0 0 0 0 0 0 0 0 0 -0 0 0 -0 0 0 -0 -0 0 0 0 0 0 0 0 0 0 -0 -0 0 0 0 0 0 0 -0
0 0 0 0 0 -0 0 0 0 0 0 0 0 0 0 0 0 0 -0 -0 -0 0 0 0 -0 0 0 0 0 0 0 0 -0 0 0 -0 -0 0 -0 0 0 0 0 0 0
0 0 0 0 0 0 0 0 0 0 0 0 0 0 0 -0 0 0 0 -0 0 0 0 0 0 0 0 0 0 0 0 0 0 0 0 0 0 0 0 0 -0 0 0 0 0
0 0 0 0 0 0 0 0 0 0 0 0 0 0 0 -0 0 0 0 -0 0 0 0 0 0 0 0 0 0 0 0 0 0 0 0 0 0 0 0 0 0 -0 0 0 0
0 0 0 0 0 0 0 0 0 0 0 0 0 0 0 -0 0 0 0 0 0 0 0 0 0 0 0 0 0 0 0 0 0 0 0 0 0 0 0 0 0 0 0 -0 0
0 0 0 0 0 0 0 0 0 0 0 0 0 0 0 0 0 0 0 0 0 0 0 0 0 0 0 0 0 0 0 0 0 0 0 0 0 0 0 0 0 0 0 0 0
0 0 0 0 0 0 0 0 0 0 0 0 0 0 -0 0 -0 0 0 0 -0 -0 -0 0 0 0 0 0 0 0 0 0 0 0 0 -0 0 0 0 0 0 0 0 0 0
0 0 0 0 0 0 0 0 0 0 0 0 0 0 -0 0 0 0 -0 0 0 0 0 0 0 0 0 0 0 0 0 -0 0 0 0 0 0 0 0 0 0 0 0 0 0
0 0 0 0 0 0 0 0 0 0 0 0 0 -0 0 0 0 0 0 0 0 0 0 0 0 0 0 0 0 0 0 0 0 0 0 0 0 0 0 0 0 -0 0 0 1
0 0 0 0 0 0 0 0 0 0 0 0 0 0 0 0 -0 0 0 0 0 0 0 0 0 0 0 -0 0 0 0 0 0 0 0 0 0 0 0 0 0 0 -0 0 1
0 0 0 0 0 0 0 0 0 0 0 0 0 0 0 0 -0 0 0 0 0 0 -0 0 0 0 0 0 0 0 0 0 0 0 0 0 0 0 0 0 0 0 0 0 0
0 0 0 0 0 0 0 0 0 0 0 0 0 0 0 0 0 0 0 0 0 0 0 0 0 0 0 0 0 0 0 0 0 0 0 0 0 0 0 0 0 0 0 0 1
0 0 0 0 0 0 0 0 0 0 0 0 0 0 0 0 0 0 0 0 0 0 0 0 0 0 0 0 0 0 0 0 0 0 0 0 0 0 0 0 0 0 0 0 1
0 0 0 0 0 0 0 0 0 0 0 0 0 0 0 0 0 0 0 0 0 0 0 0 0 0 0 0 0 0 0 0 0 0 0 0 0 0 0 0 0 0 0 0 1
0 0 0 0 0 0 0 0 0 0 0 0 0 0 0 0 0 0 0 0 0 0 0 0 0 0 0 0 0 0 0 0 0 0 0 0 0 0 0 0 0 0 0 1 1
0 0 0 0 0 0 0 0 0 0 0 0 0 0 0 0 0 0 0 0 0 0 0 0 0 0 0 -0 0 0 0 0 0 0 0 0 0 0 0 0 0 1 1 1 1
Wind_Speed_500mb
22 23 26 29 34 37 39 39 40 40 38 40 41 38 34 30 23 7 5 16 28 33 38 26 23 23 24 30 27 24 24 21 10 9 24 28 22 14 13 19 8 9 2 40 40
21 24 27 31 33 37 40 40 40 41 38 37 39 37 32 28 13 14 20 25 30 38 35 33 31 28 33 32 26 28 26 11 17 13 2 24 22 23 18 16 17 13 26 38 43
23 25 28 32 37 39 41 42 41 39 39 35 36 33 28 26 9 6 10 17 27 37 27 26 25 30 37 29 33 33 32 20 13 5 11 19 22 19 18 23 23 26 32 39 40
24 27 31 34 36 41 43 44 43 39 37 34 32 27 25 15 4 1 8 20 31 37 24 27 27 35 35 31 33 30 32 2 13 6 13 13 31 13 5 16 21 32 37 41 42
25 26 30 35 39 42 45 47 45 39 36 32 27 24 19 15 2 5 17 24 31 23 29 29 34 38 31 30 31 29 28 16 10 7 15 9 22 14 14 13 26 36 38 38 38
27 26 31 35 39 44 46 49 46 40 34 31 24 21 14 28 3 7 20 22 20 23 28 30 27 38 27 29 28 33 38 18 14 14 17 22 16 12 23 18 31 37 37 36 37
30 29 30 35 40 45 49 49 45 39 34 29 19 19 19 8 10 16 23 20 19 22 25 27 20 23 27 20 28 27 28 26 24 25 14 28 27 25 32 26 34 36 36 37 37
31 28 29 35 41 46 49 48 43 37 32 25 15 12 21 5 14 21 22 19 20 20 20 22 18 26 30 28 20 28 29 32 32 19 19 29 36 37 28 33 35 36 36 39 40
31 28 28 34 40 47 49 46 39 31 27 18 8 9 16 9 20 23 22 20 21 23 19 19 22 31 31 23 27 30 29 36 23 20 17 30 22 32 37 36 36 38 40 41 42
32 27 27 31 38 47 49 38 27 20 10 9 13 15 19 20 23 24 21 17 26 27 25 26 24 23 25 29 29 36 39 35 31 28 21 28 30 37 34 37 35 38 41 42 44
33 28 25 28 33 41 48 33 17 10 16 33 11 22 10 15 22 25 25 24 29 32 29 37 26 28 37 37 39 27 28 39 18 16 33 33 30 22 37 33 34 39 41 44 47
34 28 24 25 29 31 27 18 10 14 26 31 32 29 14 12 25 29 31 29 30 31 37 21 31 30 29 16 25 25 32 32 26 28 16 33 35 32 33 34 35 34 39 44 48
33 27 22 21 23 20 13 12 16 20 18 15 22 39 33 29 30 40 41 39 28 35 34 32 14 30 7 21 24 31 36 30 36 20 27 35 37 29 26 26 37 37 37 44 48
33 26 19 15 12 16 8 19 20 14 12 27 24 22 31 37 31 31 42 36 23 29 25 27 30 12 21 27 25 29 31 34 36 24 21 36 30 33 35 33 35 32 40 46 49
33 25 17 14 15 14 15 21 19 8 11 30 24 23 34 41 33 27 38 35 27 19 9 28 23 23 29 29 26 28 24 23 35 31 29 46 27 27 24 38 36 41 51 48 50
33 25 18 12 14 16 20 20 12 14 11 17 21 26 34 46 26 46 38 25 25 19 25 18 9 20 33 25 12 20 18 21 30 32 35 41 41 29 26 31 33 42 46 56 53
34 27 23 19 13 17 19 12 14 20 13 17 29 30 37 29 29 28 38 34 21 18 27 27 26 20 20 22 20 22 22 19 22 23 32 38 42 38 37 39 30 28 39 48 50
33 29 25 21 19 17 13 17 19 20 15 9 3 19 28 39 34 33 37 32 34 30 30 25 27 32 20 27 23 30 28 24 26 24 26 45 41 34 33 18 23 46 47 42 37
31 25 24 20 18 12 20 21 22 24 10 6 23 22 29 29 21 29 31 34 34 24 26 11 9 8 11 24 26 24 30 32 33 33 27 26 21 8 21 18 24 39 37 29 26
24 22 31 28 16 13 18 33 31 2 9 19 25 30 30 28 24 25 29 19 11 27 24 10 9 17 18 18 21 28 13 19 17 27 30 28 25 20 23 19 17 22 18 6 11
26 26 26 24 17 23 21 32 31 8 11 16 16 11 21 33 30 32 27 15 10 24 17 18 15 18 16 23 30 17 24 24 25 21 24 18 14 25 23 20 22 27 35 30 18
30 22 21 28 26 31 25 35 9 15 22 14 11 20 11 6 26 25 18 11 8 13 26 14 10 21 24 6 11 19 27 19 14 18 22 22 25 34 19 11 25 35 40 25 18
32 28 18 26 20 24 27 20 18 24 21 18 14 12 10 19 13 8 26 13 13 14 7 10 13 18 27 21 19 18 18 14 7 14 25 23 17 18 22 21 28 23 26 22 7
39 15 20 28 39 22 29 25 30 27 23 18 9 7 16 11 12 15 26 10 12 10 6 5 5 21 13 10 17 11 10 13 9 12 22 23 20 20 21 29 31 39 30 19 7
16 22 23 21 27 23 21 19 28 23 28 30 17 20 20 18 24 26 28 22 19 12 8 5 12 19 22 16 22 23 22 21 23 23 23 28 32 28 36 9 17 18 17 9 6
20 10 13 9 29 25 16 24 28 28 26 26 24 25 10 16 16 22 27 23 19 17 11 4 10 13 24 29 27 25 22 22 26 27 30 28 26 35 38 42 51 27 25 3 49
11 8 15 25 18 21 24 25 24 18 23 29 35 26 21 19 5 14 13 10 8 9 9 5 13 8 24 23 3 20 14 9 15 21 26 25 37 35 31 31 26 25 27 41 41
Wind_Direction_500mb
331 333 337 339 339 340 340 339 336 336 334 333 336 337 334 331 322 307 278 232 220 188 176 182 195 207 213 226 232 241 263 221 140 191 106 126 134 100 81 124 88 67 269 154 162
322 327 330 333 334 336 337 336 335 333 333 331 334 333 334 331 304 250 261 240 201 182 173 183 191 196 209 220 217 237 241 66 26 19 180 137 147 119 176 140 116 117 108 146 160
311 318 322 327 330 332 333 331 333 332 332 330 332 330 335 327 277 155 254 184 180 173 177 190 198 201 221 218 213 226 262 92 146 52 280 140 135 116 229 168 139 148 151 158 167
301 310 317 322 324 327 331 328 329 330 328 329 331 329 332 321 318 240 160 162 159 156 192 204 212 208 228 212 219 248 254 268 81 119 207 202 117 139 300 40 105 148 156 161 169
286 299 310 318 323 327 326 325 325 325 324 326 327 327 332 258 46 176 157 151 165 178 195 202 205 209 220 209 215 227 252 220 207 237 243 182 153 165 163 106 132 148 158 166 173
282 293 306 314 320 325 325 323 323 319 317 320 318 324 311 265 121 206 167 173 177 194 202 205 210 212 251 237 221 217 263 215 232 237 200 235 159 182 147 146 147 159 166 173 179
278 290 304 313 319 321 323 324 322 313 310 309 304 313 279 278 166 176 181 188 192 196 207 207 224 205 227 243 234 258 247 239 236 233 212 237 191 186 150 168 160 172 175 179 187
272 286 301 311 317 319 323 324 320 310 302 298 290 296 272 167 182 184 185 196 202 201 205 202 215 232 255 234 219 226 239 236 219 198 205 213 217 173 160 176 172 183 182 186 192
268 283 299 308 316 319 324 326 320 306 296 284 287 233 237 193 182 188 191 196 198 194 192 202 217 226 217 242 226 212 225 230 193 195 208 216 224 181 166 187 178 189 190 195 195
268 278 296 308 317 323 328 333 321 315 300 282 243 245 220 205 172 182 187 203 189 186 193 205 213 219 235 215 223 211 223 224 241 167 229 212 258 139 172 186 193 191 201 200 201
262 275 290 307 319 330 340 336 313 207 255 271 303 250 145 161 178 186 193 188 189 195 206 206 217 214 219 224 244 251 257 224 224 214 191 239 223 182 170 204 209 192 202 209 211
256 267 284 305 322 331 358 1 11 326 299 266 248 233 233 197 194 194 184 197 195 206 214 185 233 239 236 252 242 277 258 268 241 201 207 229 244 238 185 196 218 212 205 213 214
250 261 276 303 325 351 335 354 334 321 267 273 218 219 206 204 216 183 191 212 200 216 200 228 234 224 189 223 242 238 246 240 258 179 231 253 246 233 244 257 213 219 232 218 218
243 251 267 294 307 313 284 332 327 307 268 161 189 202 186 195 218 194 198 204 211 230 207 233 254 242 209 240 224 245 225 255 260 242 223 223 254 235 226 239 249 249 235 240 230
236 242 252 271 278 311 295 321 315 292 258 152 134 147 189 198 175 195 193 215 236 216 219 225 222 196 225 229 227 255 286 234 254 256 252 262 229 264 252 213 229 242 251 240 238
229 233 242 298 284 275 309 306 298 233 242 153 146 177 180 208 176 168 188 222 246 219 225 281 227 222 237 241 242 262 249 252 251 246 245 246 261 241 234 240 222 240 246 254 244
223 227 231 236 230 291 307 278 232 244 113 155 179 171 184 187 191 171 190 198 205 204 221 218 202 226 256 205 200 231 224 224 220 226 248 248 246 252 262 271 258 246 255 269 265
218 224 230 235 248 286 288 235 247 213 224 44 269 191 199 176 202 192 195 205 218 222 268 202 202 196 189 234 208 205 240 254 256 240 251 221 235 251 251 308 274 292 286 280 282
215 220 236 241 227 251 245 227 220 258 5 233 188 202 204 183 199 194 216 213 198 221 254 213 230 117 220 218 249 226 225 244 274 281 277 278 307 247 247 240 229 244 251 260 246
206 215 226 208 213 211 235 249 253 60 344 251 247 210 181 190 207 200 190 201 198 192 244 299 208 188 171 241 247 266 308 236 233 261 274 277 253 263 192 210 234 287 289 35 51
206 206 178 203 188 214 232 231 229 194 264 268 258 228 253 182 208 200 174 145 223 191 213 242 258 156 171 216 237 184 234 243 278 302 304 285 255 57 24 347 331 314 300 337 17
201 220 170 174 204 223 232 233 21 249 214 253 295 302 261 188 216 196 144 144 183 175 208 209 256 251 213 79 6 322 314 324 248 235 244 273 289 311 321 331 318 311 297 353 356
211 190 172 183 224 227 218 236 217 232 220 213 227 264 270 217 231 171 96 92 167 207 43 146 220 241 242 195 211 232 238 266 273 315 277 300 301 348 345 313 327 318 331 324 338
214 185 163 205 244 292 202 208 216 227 227 212 265 233 205 191 239 160 123 130 142 104 54 300 265 279 103 240 266 266 258 210 223 283 284 255 311 318 333 27 350 349 356 308 126
225 209 183 187 213 217 261 218 208 191 216 206 221 240 208 206 189 182 148 150 157 150 188 306 266 275 292 263 247 271 274 284 267 246 253 290 304 316 338 72 336 14 331 317 102
218 231 178 137 204 202 166 224 213 207 190 202 226 196 212 230 214 160 148 186 175 175 176 158 283 293 291 289 278 278 274 271 272 282 281 289 267 15 359 358 347 1 330 91 71
204 276 241 134 189 201 198 222 213 214 206 223 203 229 201 221 42 3 103 95 109 172 175 241 305 264 277 287 285 263 270 339 354 338 332 323 355 354 337 343 340 340 59 81 96
Wind_Speed_850mb
22 23 26 29 34 37 39 39 40 40 38 40 41 38 34 30 23 7 5 16 28 33 38 26 23 23 24 30 27 24 24 21 10 9 24 28 22 14 13 19 8 9 2 40 40
21 24 27 31 33 37 40 40 40 41 38 37 39 37 32 28 13 14 20 25 30 38 35 33 31 28 33 32 26 28 26 11 17 13 2 24 22 23 18 16 17 13 26 38 43
23 25 28 32 37 39 41 42 41 39 39 35 36 33 28 26 9 6 10 17 27 37 27 26 25 30 37 29 33 33 32 20 13 5 11 19 22 19 18 23 23 26 32 39 40
24 27 31 34 36 41 43 44 43 39 37 34 32 27 25 15 4 1 8 20 31 37 24 27 27 35 35 31 33 30 32 2 13 6 13 13 31 13 5 16 21 32 37 41 42
25 26 30 35 39 42 45 47 45 39 36 32 27 24 19 15 2 5 17 24 31 23 29 29 34 38 31 30 31 29 28 16 10 7 15 9 22 14 14 13 26 36 38 38 38
27 26 31 35 39 44 46 49 46 40 34 31 24 21 14 28 3 7 20 22 20 23 28 30 27 38 27 29 28 33 38 18 14 14 17 22 16 12 23 18 31 37 37 36 37
30 29 30 35 40 45 49 49 45 39 34 29 19 19 19 8 10 16 23 20 19 22 25 27 20 23 27 20 28 27 28 26 24 25 14 28 27 25 32 26 34 36 36 37 37
31 28 29 35 41 46 49 48 43 37 32 25 15 12 21 5 14 21 22 19 20 20 20 22 18 26 30 28 20 28 29 32 32 19 19 29 36 37 28 33 35 36 36 39 40
31 28 28 34 40 47 49 46 39 31 27 18 8 9 16 9 20 23 22 20 21 23 19 19 22 31 31 23 27 30 29 36 23 20 17 30 22 32 37 36 36 38 40 41 42
32 27 27 31 38 47 49 38 27 20 10 9 13 15 19 20 23 24 21 17 26 27 25 26 24 23 25 29 29 36 39 35 31 28 21 28 30 37 34 37 35 38 41 42 44
33 28 25 28 33 41 48 33 17 10 16 33 11 22 10 15 22 25 25 24 29 32 29 37 26 28 37 37 39 27 28 39 18 16 33 33 30 22 37 33 34 39 41 44 47
34 28 24 25 29 31 27 18 10 14 26 31 32 29 14 12 25 29 31 29 30 31 37 21 31 30 29 16 25 25 32 32 26 28 16 33 35 32 33 34 35 34 39 44 48
33 27 22 21 23 20 13 12 16 20 18 15 22 39 33 29 30 40 41 39 28 35 34 32 14 30 7 21 24 31 36 30 36 20 27 35 37 29 26 26 37 37 37 44 48
33 26 19 15 12 16 8 19 20 14 12 27 24 22 31 37 31 31 42 36 23 29 25 27 30 12 21 27 25 29 31 34 36 24 21 36 30 33 35 33 35 32 40 46 49
33 25 17 14 15 14 15 21 19 8 11 30 24 23 34 41 33 27 38 35 27 19 9 28 23 23 29 29 26 28 24 23 35 31 29 46 27 27 24 38 36 41 51 48 50
33 25 18 12 14 16 20 20 12 14 11 17 21 26 34 46 26 46 38 25 25 19 25 18 9 20 33 25 12 20 18 21 30 32 35 41 41 29 26 31 33 42 46 56 53
34 27 23 19 13 17 19 12 14 20 13 17 29 30 37 29 29 28 38 34 21 18 27 27 26 20 20 22 20 22 22 19 22 23 32 38 42 38 37 39 30 28 39 48 50
33 29 25 21 19 17 13 17 19 20 15 9 3 19 28 39 34 33 37 32 34 30 30 25 27 32 20 27 23 30 28 24 26 24 26 45 41 34 33 18 23 46 47 42 37
31 25 24 20 18 12 20 21 22 24 10 6 23 22 29 29 21 29 31 34 34 24 26 11 9 8 11 24 26 24 30 32 33 33 27 26 21 8 21 18 24 39 37 29 26
24 22 31 28 16 13 18 33 31 2 9 19 25 30 30 28 24 25 29 19 11 27 24 10 9 17 18 18 21 28 13 19 17 27 30 28 25 20 23 19 17 22 18 6 11
26 26 26 24 17 23 21 32 31 8 11 16 16 11 21 33 30 32 27 15 10 24 17 18 15 18 16 23 30 17 24 24 25 21 24 18 14 25 23 20 22 27 35 30 18
30 22 21 28 26 31 25 35 9 15 22 14 11 20 11 6 26 25 18 11 8 13 26 14 10 21 24 6 11 19 27 19 14 18 22 22 25 34 19 11 25 35 40 25 18
32 28 18 26 20 24 27 20 18 24 21 18 14 12 10 19 13 8 26 13 13 14 7 10 13 18 27 21 19 18 18 14 7 14 25 23 17 18 22 21 28 23 26 22 7
39 15 20 28 39 22 29 25 30 27 23 18 9 7 16 11 12 15 26 10 12 10 6 5 5 21 13 10 17 11 10 13 9 12 22 23 20 20 21 29 31 39 30 19 7
16 22 23 21 27 23 21 19 28 23 28 30 17 20 20 18 24 26 28 22 19 12 8 5 12 19 22 16 22 23 22 21 23 23 23 28 32 28 36 9 17 18 17 9 6
20 10 13 9 29 25 16 24 28 28 26 26 24 25 10 16 16 22 27 23 19 17 11 4 10 13 24 29 27 25 22 22 26 27 30 28 26 35 38 42 51 27 25 3 49
11 8 15 25 18 21 24 25 24 18 23 29 35 26 21 19 5 14 13 10 8 9 9 5 13 8 24 23 3 20 14 9 15 21 26 25 37 35 31 31 26 25 27 41 41
Wind_Direction_850mb
331 333 337 339 339 340 340 339 336 336 334 333 336 337 334 331 322 307 278 232 220 188 176 182 195 207 213 226 232 241 263 221 140 191 106 126 134 100 81 124 88 67 269 154 162
322 327 330 333 334 336 337 336 335 333 333 331 334 333 334 331 304 250 261 240 201 182 173 183 191 196 209 220 217 237 241 66 26 19 180 137 147 119 176 140 116 117 108 146 160
311 318 322 327 330 332 333 331 333 332 332 330 332 330 335 327 277 155 254 184 180 173 177 190 198 201 221 218 213 226 262 92 146 52 280 140 135 116 229 168 139 148 151 158 167
301 310 317 322 324 327 331 328 329 330 328 329 331 329 332 321 318 240 160 162 159 156 192 204 212 208 228 212 219 248 254 268 81 119 207 202 117 139 300 40 105 148 156 161 169
286 299 310 318 323 327 326 325 325 325 324 326 327 327 332 258 46 176 157 151 165 178 195 202 205 209 220 209 215 227 252 220 207 237 243 182 153 165 163 106 132 148 158 166 173
282 293 306 314 320 325 325 323 323 319 317 320 318 324 311 265 121 206 167 173 177 194 202 205 210 212 251 237 221 217 263 215 232 237 200 235 159 182 147 146 147 159 166 173 179
278 290 304 313 319 321 323 324 322 313 310 309 304 313 279 278 166 176 181 188 192 196 207 207 224 205 227 243 234 258 247 239 236 233 212 237 191 186 150 168 160 172 175 179 187
272 286 301 311 317 319 323 324 320 310 302 298 290 296 272 167 182 184 185 196 202 201 205 202 215 232 255 234 219 226 239 236 219 198 205 213 217 173 160 176 172 183 182 186 192
268 283 299 308 316 319 324 326 320 306 296 284 287 233 237 193 182 188 191 196 198 194 192 202 217 226 217 242 226 212 225 230 193 195 208 216 224 181 166 187 178 189 190 195 195
268 278 296 308 317 323 328 333 321 315 300 282 243 245 220 205 172 182 187 203 189 186 193 205 213 219 235 215 223 211 223 224 241 167 229 212 258 139 172 186 193 191 201 200 201
262 275 290 307 319 330 340 336 313 207 255 271 303 250 145 161 178 186 193 188 189 195 206 206 217 214 219 224 244 251 257 224 224 214 191 239 223 182 170 204 209 192 202 209 211
256 267 284 305 322 331 358 1 11 326 299 266 248 233 233 197 194 194 184 197 195 206 214 185 233 239 236 252 242 277 258 268 241 201 207 229 244 238 185 196 218 212 205 213 214
250 261 276 303 325 351 335 354 334 321 267 273 218 219 206 204 216 183 191 212 200 216 200 228 234 224 189 223 242 238 246 240 258 179 231 253 246 233 244 257 213 219 232 218 218
243 251 267 294 307 313 284 332 327 307 268 161 189 202 186 195 218 194 198 204 211 230 207 233 254 242 209 240 224 245 225 255 260 242 223 223 254 235 226 239 249 249 235 240 230
236 242 252 271 278 311 295 321 315 292 258 152 134 147 189 198 175 195 193 215 236 216 219 225 222 196 225 229 227 255 286 234 254 256 252 262 229 264 252 213 229 242 251 240 238
229 233 242 298 284 275 309 306 298 233 242 153 146 177 180 208 176 168 188 222 246 219 225 281 227 222 237 241 242 262 249 252 251 246 245 246 261 241 234 240 222 240 246 254 244
223 227 231 236 230 291 307 278 232 244 113 155 179 171 184 187 191 171 190 198 205 204 221 218 202 226 256 205 200 231 224 224 220 226 248 248 246 252 262 271 258 246 255 269 265
218 224 230 235 248 286 288 235 247 213 224 44 269 191 199 176 202 192 195 205 218 222 268 202 202 196 189 234 208 205 240 254 256 240 251 221 235 251 251 308 274 292 286 280 282
215 220 236 241 227 251 245 227 220 258 5 233 188 202 204 183 199 194 216 213 198 221 254 213 230 117 220 218 249 226 225 244 274 281 277 278 307 247 247 240 229 244 251 260 246
206 215 226 208 213 211 235 249 253 60 344 251 247 210 181 190 207 200 190 201 198 192 244 299 208 188 171 241 247 266 308 236 233 261 274 277 253 263 192 210 234 287 289 35 51
206 206 178 203 188 214 232 231 229 194 264 268 258 228 253 182 208 200 174 145 223 191 213 242 258 156 171 216 237 184 234 243 278 302 304 285 255 57 24 347 331 314 300 337 17
201 220 170 174 204 223 232 233 21 249 214 253 295 302 261 188 216 196 144 144 183 175 208 209 256 251 213 79 6 322 314 324 248 235 244 273 289 311 321 331 318 311 297 353 356
211 190 172 183 224 227 218 236 217 232 220 213 227 264 270 217 231 171 96 92 167 207 43 146 220 241 242 195 211 232 238 266 273 315 277 300 301 348 345 313 327 318 331 324 338
214 185 163 205 244 292 202 208 216 227 227 212 265 233 205 191 239 160 123 130 142 104 54 300 265 279 103 240 266 266 258 210 223 283 284 255 311 318 333 27 350 349 356 308 126
225 209 183 187 213 217 261 218 208 191 216 206 221 240 208 206 189 182 148 150 157 150 188 306 266 275 292 263 247 271 274 284 267 246 253 290 304 316 338 72 336 14 331 317 102
218 231 178 137 204 202 166 224 213 207 190 202 226 196 212 230 214 160 148 186 175 175 176 158 283 293 291 289 278 278 274 271 272 282 281 289 267 15 359 358 347 1 330 91 71
204 276 241 134 189 201 198 222 213 214 206 223 203 229 201 221 42 3 103 95 109 172 175 241 305 264 277 287 285 263 270 339 354 338 332 323 355 354 337 343 340 340 59 81 96